Aérodrome :
LOGIN :

S'inscrire | Disclaimer

   EN    FR    IT 

 










Légende :    VFR   VFR Marginal   IFR   IFR Intensif   IFR Très Intensif
Visi : 
Plafond : 
>= 8 km
>= 3000ft
5 à 8 km
1000 à 3000 ft
1500m à 5 km
500 à 1000 ft
800 à 1500m
200 à 500 ft
< 800m
< 200 ft
Symboles :   Orages  Brouillard  Fortes neiges  Fortes précipitations  Vent > 20 kt
SIGMETs :   Divers  Orages  Givrage  Turbulence  Onde Orograph.  Cendres Volcan.






- Altitude de l'aérodrome : 1299 ft


EDTY - Adolf Würth

DERNIER METAR :
  • 270250Z AUTO 09003KT 070V160 9999 // FEW033/// 13/13 Q1016

METARs EXPIRÉS :
  • 270220Z AUTO 07002KT 9999 // FEW055/// 13/12 Q1016
  • 270150Z AUTO 09005KT 9999 // FEW048/// SCT054/// 13/12 Q1015
  • 270120Z AUTO VRB02KT 9999 // NCD 13/11 Q1015
  • 270050Z AUTO VRB02KT 9999 // FEW069/// 13/13 Q1015
  • 270020Z AUTO VRB01KT 9999 // NCD 14/13 Q1015

Prévision TAF périmée.



MET'MAP, la Météo Aéronautique d'un coup d'oeil ! - Copyright ORBIFLY Décembre 2007 - Disclaimer

ORBIFLY MET'MAP TEAM :

Programmation & Développement : Alexandra Zaïnal
Sur une idée originale de : Baudouin d'Aumeries
Assistance à la programmation : Marc-Olivier Méhu
Soutien technique & logistique : Manuel Goepfert

Contact : metmap@orbifly.com




SOURCES & CREDITS :

   NOAA